User: anonymous   Login
Location: Grand Mazuras
(45.9128°N, 1.7636°E)
Time: 03:59:44
(UTC+00:00)
Language:

Cosmos 1627 Rocket - Orbit

View from above orbital plane
View from above orbital plane
View from above satellite
View from above satellite

Ground track
Ground track

The orbit data is extracted from the following two-line orbital elements,

1 15506U 85011B   21169.45501641  .00000008  00000-0 -64761-5 0  9995
2 15506  82.9190 292.7619 0035067 280.2567 147.6946 13.76214795826250
Epoch (UTC): 18 June 2021 10:55:13
Eccentricity: 0.0035067
inclination: 82.9190°
perigee height: 951 km
apogee height: 1003 km
right ascension of ascending node: 292.7619°
argument of perigee: 280.2567°
revolutions per day: 13.76214795
mean anomaly at epoch: 147.6946°
orbit number at epoch: 82625

The dashed part of the orbit path shows where the satellite is in the earth's shadow,  

DLR